Theta_e
312 312 312 312 313 313 312 312 311 310 308 305 306 307 311 309 311 312 312 309 306 306 305 306 305 305 313 314 315 314 315 315 315 317 318 319 320 321 322 327 328 327 323 327 337
313 313 313 312 312 312 312 312 312 311 310 309 307 307 309 310 310 312 312 309 306 311 308 306 305 305 311 313 312 316 315 314 315 316 317 318 319 320 321 323 326 326 323 336 342
313 312 312 312 312 311 310 310 311 311 311 311 310 308 308 310 311 309 314 308 309 311 308 307 309 307 309 311 312 311 315 315 315 316 317 317 318 318 320 323 324 327 323 323 331
312 311 311 312 312 312 311 311 310 311 311 311 311 310 309 310 314 320 317 315 314 311 309 308 308 309 310 310 311 312 312 313 314 315 316 317 317 317 319 321 322 324 322 322 321
310 309 310 310 310 310 310 310 310 310 311 311 311 311 309 309 310 311 314 319 316 312 310 309 309 309 310 310 310 312 312 311 313 313 314 314 315 315 316 318 320 321 325 324 326
309 310 309 308 308 310 310 310 310 310 311 311 311 310 310 311 310 312 310 311 314 313 311 308 309 310 311 312 311 311 311 311 311 312 313 314 314 314 314 315 316 319 321 326 326
308 308 308 307 307 309 309 309 310 311 311 311 311 310 309 312 311 312 316 313 308 312 311 308 308 310 311 314 313 313 314 315 313 311 312 312 314 314 314 315 316 322 324 326 326
306 306 307 308 307 307 307 309 312 311 311 311 310 311 310 311 310 311 314 311 310 311 309 307 308 310 313 312 314 315 313 317 318 313 312 312 312 314 315 315 316 318 319 323 327
305 305 305 307 307 307 307 309 312 311 311 311 310 309 311 311 311 311 312 313 310 309 308 308 309 310 311 314 315 314 318 316 317 314 314 313 314 316 315 315 317 318 321 323 326
304 304 304 305 307 307 307 310 312 312 311 310 311 310 311 313 314 313 312 313 310 309 310 309 308 311 311 313 317 318 315 315 316 316 314 314 315 317 316 316 317 320 320 321 324
304 303 304 303 305 306 307 313 314 314 313 312 314 312 314 315 316 315 312 312 311 310 310 309 310 313 315 315 316 316 317 318 318 317 315 316 316 316 317 318 319 320 319 321 322
305 304 303 302 303 305 308 315 314 314 315 315 315 314 316 316 317 314 313 314 313 315 312 311 312 313 314 315 315 316 317 318 318 317 316 317 317 317 317 318 320 318 319 321 323
305 305 304 304 302 305 314 315 315 315 314 315 315 315 316 316 317 317 314 314 315 315 314 315 315 315 314 316 316 317 317 318 317 318 317 317 318 317 317 315 316 316 319 320 321
305 305 305 304 304 308 309 312 315 315 319 318 317 317 316 317 318 318 313 314 315 316 315 316 315 314 315 316 317 318 317 318 318 318 320 318 319 320 319 318 317 317 317 318 318
303 303 303 303 303 303 305 314 314 314 322 318 320 318 317 318 317 318 315 313 316 316 315 316 316 316 316 317 317 318 317 318 319 319 319 320 319 320 319 319 320 320 319 319 321
301 303 303 303 302 303 305 310 313 319 321 322 319 319 319 318 316 315 313 314 316 317 316 316 315 316 317 317 316 317 318 318 318 319 320 319 319 320 320 320 322 320 319 319 321
302 301 301 303 303 303 307 307 319 320 318 325 321 319 319 318 318 318 317 316 318 318 318 317 317 317 316 318 317 317 320 320 320 320 320 319 320 320 320 320 320 322 320 321 322
302 301 302 302 303 303 308 317 321 318 317 319 319 319 319 317 318 317 317 317 317 317 317 317 317 317 317 317 318 318 320 320 320 320 320 320 321 321 320 319 318 320 320 321 321
301 302 303 304 311 306 310 320 319 318 318 322 319 320 320 318 318 318 318 318 317 317 318 318 317 318 319 319 319 319 319 318 321 319 320 321 321 321 320 319 319 319 320 320 318
303 302 305 312 314 307 310 315 318 319 320 321 322 321 321 319 318 319 318 318 318 317 318 318 320 320 320 320 319 320 319 323 321 323 321 321 322 320 322 321 321 320 319 317 315
303 304 307 313 309 309 311 313 316 318 318 319 320 322 321 319 318 318 319 320 318 317 317 318 319 320 319 321 321 320 321 321 322 323 324 322 322 321 323 322 321 319 317 316 315
304 305 307 310 315 314 314 314 316 318 316 320 321 321 321 321 322 321 320 322 319 316 317 317 319 320 321 318 318 320 321 322 324 324 322 323 322 318 319 320 318 316 314 314 314
304 304 307 311 315 317 316 316 316 317 318 319 320 319 319 322 321 320 320 318 319 320 320 321 322 323 321 319 319 321 319 319 321 322 324 325 322 317 316 316 315 314 313 312 312
304 306 308 312 312 313 315 316 316 314 316 318 319 318 318 319 318 321 320 317 319 320 321 321 321 323 324 322 321 323 321 319 320 322 321 321 321 319 318 318 315 313 312 312 311
305 306 309 310 310 310 313 315 316 317 316 317 319 319 318 318 317 318 317 317 316 317 315 320 322 322 319 320 319 321 321 320 321 321 321 319 320 320 319 318 315 313 313 312 311
306 307 306 306 308 311 312 314 314 315 315 315 318 317 316 315 316 317 317 317 319 317 317 315 320 318 319 317 317 319 318 319 319 320 320 319 320 318 315 314 312 312 312 312 311
304 305 305 306 307 309 312 311 312 311 314 313 315 315 315 313 312 311 312 312 314 317 317 318 318 319 318 317 317 317 318 318 317 317 318 319 318 316 314 315 313 312 311 311 310
Wind_Speed
17 17 17 18 18 17 18 19 18 17 17 17 18 17 16 15 16 18 22 13 8 15 14 8 13 17 14 10 7 7 6 11 12 13 9 8 7 3 7 6 7 4 2 4 7
17 17 18 18 19 20 20 19 19 19 18 18 18 18 18 16 17 24 14 13 11 10 12 12 15 18 8 7 6 8 6 10 5 12 8 17 18 14 8 11 6 5 11 3 11
20 21 21 21 21 22 22 22 21 20 20 20 19 18 17 17 16 4 5 14 14 9 10 11 12 14 8 7 7 5 7 5 6 12 15 20 9 5 15 17 11 8 4 8 2
22 22 23 23 23 23 22 22 23 23 22 21 20 17 17 12 4 2 6 11 11 12 13 13 16 11 7 9 8 5 9 14 6 11 8 15 15 17 19 23 19 11 8 1 2
24 23 23 23 23 23 23 23 24 25 25 23 19 17 14 8 18 9 7 8 10 13 16 18 17 8 8 8 7 10 11 10 16 17 19 19 20 20 22 23 26 19 17 13 6
24 23 23 23 23 23 23 24 26 27 26 20 16 15 10 7 10 11 11 12 12 14 19 20 11 9 6 6 10 8 15 17 13 18 14 18 25 23 18 19 32 27 24 22 16
23 23 23 23 23 23 23 25 27 25 20 15 13 11 13 22 10 8 9 7 6 14 17 20 7 8 6 5 5 4 8 10 14 18 13 17 20 22 17 22 27 16 20 25 23
24 24 23 24 24 25 26 25 24 17 11 10 9 9 12 7 15 17 10 7 10 14 9 16 13 7 2 2 2 3 2 6 6 13 13 17 18 20 17 24 25 27 25 23 25
24 24 24 24 25 26 26 24 16 11 6 7 8 9 11 9 17 16 19 9 14 16 10 13 12 4 2 1 3 3 5 7 10 14 7 15 15 21 27 23 23 21 19 18 21
26 25 24 25 25 26 27 19 8 5 2 5 5 5 11 5 5 15 20 12 14 19 8 7 5 5 4 4 5 4 5 6 10 1 16 15 20 18 22 25 21 18 23 23 26
27 26 26 26 25 26 25 9 2 4 10 13 6 7 0 5 4 11 25 17 16 10 7 6 5 10 13 14 11 8 11 14 16 8 8 20 22 21 18 20 21 24 26 31 37
26 26 27 25 25 26 18 6 5 7 12 20 26 27 23 7 1 10 24 14 10 9 8 5 11 14 11 9 14 15 15 18 15 4 9 7 18 18 9 13 21 22 31 27 29
29 27 28 28 25 19 10 8 7 10 6 10 23 20 22 24 12 14 26 16 13 12 14 9 2 16 12 11 12 15 14 14 12 7 4 3 5 8 7 14 13 14 27 27 30
31 31 30 33 20 10 18 7 10 6 5 6 7 9 16 14 9 20 26 21 6 17 12 10 13 11 10 12 12 15 14 17 14 5 7 3 3 3 3 9 12 14 16 27 32
32 33 30 28 30 26 12 8 9 2 6 5 5 6 14 20 12 17 29 20 16 9 8 9 10 14 13 11 11 8 7 15 8 7 4 4 4 3 2 6 8 11 14 14 15
33 33 34 31 30 23 13 11 5 5 9 4 8 8 11 11 7 11 21 20 13 11 8 13 4 5 5 5 10 5 3 4 3 3 7 1 3 3 4 3 2 3 6 11 14
37 34 33 32 28 16 11 11 4 7 7 4 6 9 18 11 9 12 16 17 14 15 14 9 13 9 9 9 6 8 7 6 7 6 7 1 4 0 3 1 4 6 8 12 16
38 37 35 32 18 18 9 3 10 6 14 12 3 8 13 11 15 11 16 16 15 12 8 11 9 13 9 13 7 9 11 7 10 8 6 3 5 3 2 6 7 7 13 16 17
39 38 32 14 10 20 19 8 11 12 8 9 3 5 10 11 9 16 14 18 17 17 9 9 9 3 5 4 8 6 6 1 5 2 3 2 2 5 1 5 9 14 15 15 14
38 33 13 18 10 20 10 17 15 15 5 3 6 8 12 11 10 17 14 14 15 19 16 5 4 4 5 5 5 4 10 4 2 6 7 4 3 5 5 9 13 13 16 14 10
27 16 14 11 11 12 10 11 22 16 11 8 9 4 7 4 10 11 15 3 18 15 16 13 3 3 2 4 7 5 4 4 4 1 4 6 4 1 5 12 15 12 12 12 12
12 6 1 10 3 5 11 9 11 9 13 9 6 10 11 13 4 4 3 0 2 11 13 3 3 5 1 2 2 2 3 5 6 6 1 1 3 5 5 12 14 11 11 11 12
18 10 7 5 4 5 12 14 8 11 15 13 9 1 6 6 4 5 3 5 2 4 9 6 1 1 3 3 1 4 3 4 5 2 8 8 4 3 6 8 7 14 13 14 14
8 5 6 4 6 10 9 8 12 10 9 10 3 2 5 6 1 7 7 3 4 5 13 12 2 5 7 3 2 4 7 7 8 5 8 9 7 5 5 7 8 10 13 13 11
3 4 5 5 7 13 13 8 3 4 2 2 1 5 10 5 2 5 5 7 3 3 5 6 9 14 9 11 3 3 7 7 7 7 7 6 8 7 7 9 12 12 11 11 8
4 4 6 12 13 12 7 4 6 1 4 6 2 6 11 6 6 11 6 2 3 3 3 1 4 4 4 2 1 4 6 8 10 9 9 9 12 6 3 7 13 14 12 10 5
8 13 13 7 7 7 4 8 10 2 3 9 4 3 12 8 1 5 13 9 7 3 3 2 5 3 3 2 0 8 13 15 13 11 12 14 13 7 6 9 12 11 8 6 4
Wind_Direction
345 343 339 334 332 331 329 330 326 322 318 316 316 315 314 299 294 288 280 273 239 219 223 217 187 189 180 169 158 170 223 233 229 217 228 220 242 230 324 260 278 283 85 288 262
338 336 333 331 327 325 324 320 321 318 314 311 308 310 314 301 294 287 283 240 214 190 196 190 174 171 167 167 173 201 223 224 222 230 245 247 249 260 304 303 292 242 66 68 206
331 328 325 324 322 320 318 315 312 312 309 306 303 305 310 304 307 256 257 201 183 179 178 181 176 161 166 167 183 172 239 205 233 235 236 253 249 251 256 268 276 272 161 55 150
326 325 322 320 319 317 314 311 308 307 303 299 296 297 304 298 277 176 118 161 178 177 184 173 163 157 159 180 185 216 222 223 235 232 242 256 268 252 244 254 268 300 266 269 45
325 325 324 324 322 318 315 312 309 304 299 292 285 284 296 270 257 250 231 188 192 200 200 183 167 154 178 177 169 222 241 228 238 244 249 262 264 255 259 259 267 282 268 243 237
328 329 329 328 326 322 317 314 309 305 298 283 271 269 271 253 263 233 232 219 226 215 200 196 190 176 144 175 198 204 242 253 248 240 239 243 255 251 253 273 268 269 261 245 234
331 330 330 328 328 323 320 318 313 306 294 273 253 254 255 252 250 234 196 199 216 205 196 196 197 175 161 161 266 309 289 279 246 242 245 228 250 253 265 262 258 264 260 239 232
330 328 326 326 327 324 323 323 318 313 291 251 231 223 253 245 229 218 185 188 171 179 194 186 184 179 154 352 357 272 259 276 287 210 231 195 252 260 253 253 249 253 270 267 239
329 326 324 321 323 322 322 325 318 312 281 227 199 215 261 240 231 217 213 198 159 161 119 171 183 151 145 217 302 204 259 244 289 213 207 187 239 245 246 239 236 233 235 251 271
328 327 324 321 321 321 323 320 314 304 197 174 213 248 240 214 207 202 187 186 151 162 143 133 142 166 155 184 208 190 229 248 259 225 220 212 237 237 232 205 209 226 232 247 250
331 329 325 321 319 316 318 315 212 250 223 212 204 233 205 169 225 186 181 160 144 156 168 185 189 199 198 203 233 266 285 278 272 262 208 222 228 237 250 202 206 224 223 218 226
330 329 325 320 316 312 302 241 260 277 278 261 248 246 239 210 226 200 182 165 169 175 135 149 225 217 229 220 226 244 264 267 284 262 212 225 230 235 217 238 220 215 218 222 224
329 330 325 323 315 308 278 274 264 305 259 260 232 229 233 224 225 208 182 179 181 193 191 201 174 215 207 224 220 236 241 258 266 317 194 204 240 236 233 231 242 228 220 220 223
328 330 328 322 321 307 308 282 296 251 269 241 211 238 188 183 214 207 194 180 174 201 183 220 228 212 213 238 228 250 227 246 263 265 234 261 257 186 276 222 194 192 202 216 227
324 325 325 322 309 297 296 243 342 176 287 173 170 157 173 174 146 189 193 189 198 167 181 201 189 210 223 223 185 249 240 217 230 224 280 191 234 118 219 204 204 174 188 190 187
320 319 320 316 302 310 278 255 295 219 243 222 146 166 163 201 165 143 175 194 185 187 208 226 190 205 216 237 200 146 146 103 120 167 235 183 256 149 157 167 138 187 162 173 167
319 319 311 302 281 290 309 193 228 236 310 204 180 173 187 180 178 174 176 187 188 195 210 210 235 250 231 250 195 195 194 193 209 208 242 143 203 92 161 223 263 239 163 147 143
320 319 313 304 283 232 204 179 235 249 248 298 297 174 192 165 203 170 181 192 203 194 201 211 221 214 210 218 218 191 207 220 216 213 215 172 205 160 303 284 246 170 148 136 133
327 326 320 322 298 193 171 199 219 216 253 315 317 216 216 203 186 194 197 203 199 196 203 186 219 161 198 174 187 166 205 157 112 79 223 180 225 247 90 66 125 131 135 139 133
331 325 339 331 286 182 210 217 215 212 272 305 296 173 282 204 181 189 184 204 195 196 205 183 177 189 147 143 68 217 139 163 167 206 235 197 243 240 178 146 150 152 149 147 140
338 324 343 331 144 178 218 228 224 219 271 269 268 180 321 251 225 195 192 154 194 186 196 209 223 176 228 204 175 150 167 77 110 118 237 244 219 196 218 173 160 155 153 155 158
337 311 30 122 254 232 240 234 235 250 252 265 256 228 193 281 227 328 203 292 349 147 165 162 164 223 238 354 335 108 154 182 225 200 166 305 221 5 199 166 161 153 146 143 142
325 287 0 226 262 294 303 266 279 288 293 262 235 205 149 190 207 222 274 344 160 117 147 155 19 96 204 194 251 219 146 98 89 95 215 229 231 60 107 127 146 143 142 139 140
321 312 308 306 335 345 327 288 233 283 309 297 252 139 44 141 72 206 187 349 347 89 102 81 90 178 198 357 271 202 193 182 197 227 242 235 238 158 155 154 154 146 148 149 145
257 265 291 312 332 315 293 293 321 297 247 304 219 245 154 33 81 226 151 138 94 127 86 153 176 195 196 200 188 160 178 173 200 223 226 255 219 224 204 193 182 164 167 154 150
270 285 335 292 295 317 303 305 315 325 312 326 316 133 112 119 264 288 132 160 140 99 104 181 120 153 131 109 207 224 204 212 225 234 248 245 252 260 167 162 158 166 173 153 136
298 312 308 276 286 300 300 341 320 323 214 59 348 119 124 127 3 321 79 79 98 108 111 88 131 134 201 51 296 264 244 235 234 231 243 251 258 176 164 178 167 155 147 111 54